{"data":{"norad_id":63086,"epoch":"2026-05-25T03:24:55.063872Z","epoch_age_seconds":56023,"freshness":"FRESH","line1":"1 63086U 25037K   26145.14230398  .00003943  00000+0  33797-3 0  9998","line2":"2 63086  70.0002 161.6960 0003636 264.5443  95.5301 14.98344208 70057","mean_motion":14.98344208,"eccentricity":0.0003636,"inclination_deg":70.0002,"raan_deg":161.696,"arg_perigee_deg":264.5443,"mean_anomaly_deg":95.5301,"bstar":0.00033797,"rev_number":7005,"period_min":96.106087794214,"perigee_km":569.48488006388,"apogee_km":574.53902838339,"semimajor_km":6950.1489542236,"source":"CELESTRAK","updated_at":"2026-05-25T13:38:19.878694Z"}}